BLOCK DM-SL R/B

Last updated on Wed Mar 08 2023 00:02:03 GMT+0000 (Coordinated Universal Time)

1 55507U 23016B 23065.43981688 -.00000099 00000+0 00000+0 0 9994 2 55507 0.3667 275.9729 0096604 29.8038 53.3072 1.03219486 309

Satellite not in orbit

BLOCK DM-SL R/B